DATE/TIME(UTC),Outside Humidity (),Outside Temperature (),Lat. , Long.,Direction / Angle (),Direction / Angle (),Speed (ground - true North),Speed (Apparent),Barometric Pressure ()
Jul-18-2019 00:00:00,84.3,18.760000000000048,33.489503299999996,-117.771445,138.89642869561416,11.596665773447864,4.393088552915767,4.684665226781857,1009
Jul-18-2019 00:00:15,84.22,18.74000000000001,33.489509999999996,-117.7713833,143.7952178439827,12.794147565271283,4.198704103671707,4.684665226781857,1009
Jul-18-2019 00:00:30,84.38,18.83000000000004,33.489525,-117.7713383,147.79446325399584,17.29759583499955,3.790496760259179,4.198704103671707,1009
Jul-18-2019 00:00:45,84.62,18.930000000000007,33.4895333,-117.77128499999999,150.79676210048135,23.296463950019273,5.889848812095033,6.29805615550756,1009
Jul-18-2019 00:01:00,85.024,18.940000000000055,33.489545,-117.77123999999999,135.59619179566062,10.79452486026471,6.881209503239741,7.289416846652268,1009
Jul-18-2019 00:01:15,84.784,18.77000000000004,33.4895533,-117.77117659999999,131.1958759290559,6.497341396783535,6.29805615550756,6.784017278617711,1009
Jul-18-2019 00:01:30,84.46000000000001,18.690000000000055,33.4895633,-117.7711216,136.39260313089247,8.794902155258136,5.092872570194384,5.481641468682505,1009
Jul-18-2019 00:01:45,84.46000000000001,18.670000000000016,33.4895783,-117.77105499999999,132.7944281774709,2.595498811942629,5.792656587473002,6.49244060475162,1009
Jul-18-2019 00:02:00,84.46000000000001,18.620000000000005,33.48959,-117.77099159999999,126.19395437756383,357.2907514656301,5.092872570194384,5.792656587473002,1009
Jul-18-2019 00:02:15,84.46000000000001,18.600000000000023,33.489593299999996,-117.770945,129.99266455928117,1.8964903018830253,5.695464362850972,6.181425485961123,1009
Jul-18-2019 00:02:30,84.38,18.600000000000023,33.489599999999996,-117.77090159999999,134.89718328560105,5.0993243766643275,5.092872570194384,5.481641468682505,1009
Jul-18-2019 00:02:45,84.3,18.660000000000025,33.4896083,-117.77086329999999,132.9949634057667,3.6955777785938095,4.393088552915767,4.781857451403887,1009
Jul-18-2019 00:03:00,84.38,18.620000000000005,33.489619999999995,-117.77082659999999,130.19319978757696,359.19297134546434,3.6933045356371488,4.198704103671707,1009
Jul-18-2019 00:03:15,84.38,18.610000000000014,33.4896233,-117.77077659999999,127.29403334421502,355.8927344455108,3.5961123110151187,3.9848812095032398,1009
Jul-18-2019 00:03:30,84.3,18.58000000000004,33.4896283,-117.77073829999999,120.69355954430792,346.79416465883344,2.799136069114471,3.285097192224622,1009
Jul-18-2019 00:03:45,84.3,18.590000000000032,33.489631599999996,-117.77069829999999,118.79706924242488,341.99277833563707,2.2937365010799136,2.896328293736501,1009
Jul-18-2019 00:04:00,84.38,18.640000000000043,33.489615,-117.77064,131.09274352593238,347.791111222361,1.982721382289417,2.799136069114471,1009
Jul-18-2019 00:04:15,84.38,18.700000000000045,33.489615,-117.770585,126.49762200898317,345.1898828324671,2.488120950323974,3.285097192224622,1009
Jul-18-2019 00:04:30,84.3,18.720000000000027,33.4896066,-117.77054659999999,136.99420881577984,354.48898784744034,2.799136069114471,3.4989200863930883,1009
Jul-18-2019 00:04:45,84.46000000000001,18.83000000000004,33.4896016,-117.77050659999999,159.29372620227147,14.696367445105617,4.198704103671707,4.684665226781857,1009
Jul-18-2019 00:05:00,84.46000000000001,18.850000000000023,33.4896033,-117.77047499999999,162.89190115569303,19.39462136517837,4.781857451403887,5.287257019438445,1009
Jul-18-2019 00:05:15,84.22,18.79000000000002,33.489599999999996,-117.770445,157.79257677902874,18.59821002994652,4.08207343412527,4.490280777537797,1009
Jul-18-2019 00:05:30,84.06,18.78000000000003,33.4895983,-117.770405,165.69366477388277,24.196007688374664,3.8876889848812097,4.295896328293737,1009
Jul-18-2019 00:05:45,84.14,18.78000000000003,33.4895916,-117.7703583,182.99126060888233,35.19679735488648,3.0907127429805614,3.3822894168466524,1009
Jul-18-2019 00:06:00,84.22,18.750000000000057,33.4895916,-117.770305,173.49162036561327,28.097850273215574,3.3822894168466524,3.5961123110151187,1009
Jul-18-2019 00:06:15,84.14,18.78000000000003,33.4895816,-117.77025499999999,168.59283121724476,23.79493723178309,3.285097192224622,3.5961123110151187,1009
Jul-18-2019 00:06:30,84.06,18.79000000000002,33.489565,-117.77019999999999,157.59204155073294,15.59591118346101,3.3822894168466524,3.6933045356371488,1009
Jul-18-2019 00:06:45,84.14,18.79000000000002,33.4895566,-117.77014829999999,149.09507744894285,7.597420363434716,3.3822894168466524,3.790496760259179,1009
Jul-18-2019 00:07:00,84.22,18.78000000000003,33.48955,-117.77010329999999,150.99729732877717,10.296051578500892,3.9848812095032398,4.295896328293737,1009
Jul-18-2019 00:07:15,84.22,18.840000000000032,33.4895433,-117.7700533,155.79295407402213,15.796446411756795,4.587473002159827,4.995680345572354,1009
Jul-18-2019 00:07:30,84.3,18.920000000000016,33.4895466,-117.77001,152.29218194577282,13.699420881577984,5.987041036717063,6.39524838012959,1009
Jul-18-2019 00:07:45,84.864,19.02000000000004,33.489548299999996,-117.76996159999999,164.89152386069964,26.29876279650479,6.39524838012959,6.58963282937365,1009
Jul-18-2019 00:08:00,85.508,19.140000000000043,33.4895616,-117.76992159999999,156.3945597589095,23.095928721723485,7.697624190064795,7.794816414686824,1009
Jul-18-2019 00:08:15,85.748,19.05000000000001,33.489565,-117.76987,170.39191869395552,36.89848200642502,7.892008639308855,7.989200863930886,1009
Jul-18-2019 00:08:30,85.748,19.04000000000002,33.4895783,-117.76983659999999,171.29146243231094,39.09863993972738,6.39524838012959,6.39524838012959,1009
Jul-18-2019 00:08:45,86.388,19.090000000000032,33.48959,-117.7698016,177.3934629504542,44.89697282645131,5.889848812095033,5.792656587473002,1009
Jul-18-2019 00:09:00,86.308,19.04000000000002,33.489599999999996,-117.7697633,179.89155893722454,51.594849451530635,7.095032397408207,6.881209503239741,1009
Jul-18-2019 00:09:15,86.22800000000001,19.04000000000002,33.489619999999995,-117.76974,180.99163790387576,55.19875398290351,8.086393088552915,7.989200863930886,1009
Jul-18-2019 00:09:30,86.872,19.160000000000025,33.48964,-117.76970829999999,173.096279486973,50.29423525658366,7.095032397408207,6.9978401727861765,1009
Jul-18-2019 00:09:45,87.032,19.140000000000043,33.4896466,-117.7696416,156.29715693373726,31.99396328010517,10.496760259179267,10.691144708423327,1009
Jul-18-2019 00:10:00,86.792,19.02000000000004,33.4896483,-117.7695316,169.1944369021321,38.296499026544225,11.390928725701944,11.8963282937365,1009
Jul-18-2019 00:10:15,86.872,18.960000000000036,33.489638299999996,-117.76939159999999,178.49354191710538,37.998560973076195,9.680345572354213,10.185745140388768,1009
Jul-18-2019 00:10:30,87.19200000000001,19.04000000000002,33.4896183,-117.7692416,150.79676210048135,11.79720100174365,8.397408207343414,9.894168466522679,1009
Jul-18-2019 00:10:45,87.432,18.910000000000025,33.4895883,-117.7690616,147.79446325399584,8.794902155258136,8.883369330453565,10.593952483801296,1009
Jul-18-2019 00:11:00,86.468,18.750000000000057,33.4895516,-117.768885,150.99729732877717,11.89460382691589,7.892008639308855,9.58315334773218,1009
Jul-18-2019 00:11:15,86.388,18.810000000000002,33.489525,-117.7687016,142.49460364903575,5.494665255304595,8.397408207343414,10.088552915766739,1009
Jul-18-2019 00:11:30,86.952,18.810000000000002,33.4895066,-117.76853159999999,142.69513887733152,6.795279450251565,8.883369330453565,10.380129589632828,1009
Jul-18-2019 00:11:45,86.792,18.750000000000057,33.489483299999996,-117.76836159999999,137.49268209754365,3.5981749534215703,8.183585313174946,9.79697624190065,1009
Jul-18-2019 00:12:00,86.548,18.760000000000048,33.4894666,-117.768205,139.09696392390998,6.995814678547352,7.1922246220302375,8.883369330453565,1009
Jul-18-2019 00:12:15,86.308,18.700000000000045,33.489451599999995,-117.76805159999999,135.59619179566062,5.397262430132355,6.881209503239741,8.494600431965443,1009
Jul-18-2019 00:12:30,86.22800000000001,18.630000000000052,33.4894366,-117.7678833,129.49419127751736,0.19480565034447994,6.29805615550756,7.989200863930886,1009
Jul-18-2019 00:12:45,86.22800000000001,18.640000000000043,33.48943,-117.76773829999999,137.0973412189034,2.7960340402384176,6.29805615550756,7.697624190064795,1009
Jul-18-2019 00:13:00,86.068,18.650000000000034,33.4894166,-117.7676066,134.89718328560105,357.3938838687536,5.092872570194384,6.39524838012959,1009
Jul-18-2019 00:13:15,85.988,18.640000000000043,33.489395,-117.7674833,129.2936560492216,350.59287484055073,4.587473002159827,6.084233261339092,1009
Jul-18-2019 00:13:30,85.908,18.710000000000036,33.48937,-117.7673683,120.79669194743147,346.4904970274141,4.995680345572354,6.58963282937365,1009
Jul-18-2019 00:13:45,85.908,18.710000000000036,33.489335,-117.76724159999999,122.4926470210187,344.89194477899906,4.684665226781857,6.49244060475162,1009
Jul-18-2019 00:14:00,85.828,18.680000000000007,33.4892916,-117.76710659999999,130.29633219070053,355.19372593545125,5.384449244060475,6.9978401727861765,1009
Jul-18-2019 00:14:15,85.908,18.730000000000018,33.489264999999996,-117.76697999999999,133.39603386235828,357.78922474739386,5.987041036717063,7.697624190064795,1009
Jul-18-2019 00:14:30,85.988,18.670000000000016,33.48925,-117.7668683,130.89220829763656,356.29380490210247,5.092872570194384,6.58963282937365,1009
Jul-18-2019 00:14:45,85.828,18.600000000000023,33.48923,-117.76674159999999,130.0957969624047,356.0932696738067,5.695464362850972,7.095032397408207,1009
Jul-18-2019 00:15:00,85.828,18.77000000000004,33.489213299999996,-117.7665983,123.89639361908924,351.1887509474868,5.987041036717063,7.892008639308855,1009
Jul-18-2019 00:15:15,85.908,18.720000000000027,33.489174999999996,-117.76642659999999,115.39369993934781,345.69408569218217,6.181425485961123,7.989200863930886,1009
Jul-18-2019 00:15:30,85.508,18.660000000000025,33.489155,-117.76629,120.3956214908399,347.493173168893,6.181425485961123,7.697624190064795,1009
Jul-18-2019 00:15:45,85.508,18.670000000000016,33.48914,-117.76616999999999,120.29248908771633,349.99126915566336,5.481641468682505,6.9978401727861765,1009
Jul-18-2019 00:16:00,85.424,18.650000000000034,33.489125,-117.76604999999999,115.39369993934781,343.7918658123479,4.490280777537797,5.889848812095033,1009
Jul-18-2019 00:16:15,85.424,18.630000000000052,33.48911,-117.765935,116.29324367770319,345.7914885173544,4.295896328293737,5.695464362850972,1009
Jul-18-2019 00:16:30,85.508,18.600000000000023,33.4890983,-117.7658316,122.09730614237844,348.5932521355442,4.781857451403887,5.889848812095033,1009
Jul-18-2019 00:16:45,85.584,18.680000000000007,33.4890833,-117.765745,123.39792033732542,349.59019869907183,4.490280777537797,5.695464362850972,1009
Jul-18-2019 00:17:00,86.148,18.860000000000014,33.48908,-117.76567,169.79604258701949,34.29725361653108,8.688984881209503,8.980561555075594,1009
Jul-18-2019 00:17:15,85.828,18.82000000000005,33.489075,-117.76558159999999,172.8957442586772,38.39390185171647,7.892008639308855,8.183585313174946,1009
Jul-18-2019 00:17:30,85.584,18.730000000000018,33.489071599999995,-117.765485,175.39384024544762,39.493980818367646,8.494600431965443,8.786177105831534,1009
Jul-18-2019 00:17:45,86.068,18.80000000000001,33.489075,-117.76540659999999,177.59399817874996,43.596358631504344,8.688984881209503,8.786177105831534,1009
Jul-18-2019 00:18:00,86.708,18.880000000000052,33.48909,-117.7653216,178.19560386363733,44.89697282645131,8.494600431965443,8.397408207343414,1009
Jul-18-2019 00:18:15,87.032,18.870000000000005,33.4891083,-117.765255,176.49391921209877,43.99742908809592,7.580993520518358,7.4838012958963285,1009
Jul-18-2019 00:18:30,86.708,18.83000000000004,33.48912,-117.76517659999999,180.69369985040774,47.59560404151749,6.49244060475162,6.181425485961123,1009
Jul-18-2019 00:18:45,86.548,18.810000000000002,33.48914,-117.7651183,182.69332255541428,50.29423525658366,6.39524838012959,6.181425485961123,1009
Jul-18-2019 00:19:00,86.388,18.80000000000001,33.4891633,-117.76505329999999,180.79683225353128,49.69835914964761,5.287257019438445,5.190064794816414,1009
Jul-18-2019 00:19:15,86.388,18.82000000000005,33.4891783,-117.7649883,184.2918748038293,52.196455136418,4.393088552915767,4.198704103671707,1009
Jul-18-2019 00:19:30,86.708,18.950000000000045,33.4891933,-117.76492999999999,188.5947878452618,58.69379653320153,4.781857451403887,4.684665226781857,1009
Jul-18-2019 00:19:45,87.032,19.07000000000005,33.489213299999996,-117.76487999999999,192.9951037118665,63.29464762810204,4.781857451403887,4.587473002159827,1009
Jul-18-2019 00:20:00,87.032,19.04000000000002,33.4892283,-117.76482159999999,181.39270836046734,55.49669203637154,4.295896328293737,4.393088552915767,1009
Jul-18-2019 00:20:15,86.952,18.930000000000007,33.48926,-117.76477999999999,182.29225209882273,53.795007384833,3.8876889848812097,3.5961123110151187,1009
Jul-18-2019 00:20:30,86.468,18.880000000000052,33.48929,-117.7647483,180.79683225353128,54.39661306972036,4.684665226781857,4.490280777537797,1009
Jul-18-2019 00:20:45,86.388,18.860000000000014,33.4893016,-117.76469329999999,167.59588465371712,39.89505127495922,3.9848812095032398,3.8876889848812097,1009
Jul-18-2019 00:21:00,86.308,18.880000000000052,33.489335,-117.76467,152.99692003378374,25.095551426730058,3.9848812095032398,3.9848812095032398,1009
Jul-18-2019 00:21:15,86.468,18.940000000000055,33.489361599999995,-117.7646383,146.6943842873447,13.596288478454435,2.6825053995680346,2.799136069114471,1009
Jul-18-2019 00:21:30,86.708,18.900000000000034,33.4893833,-117.76460829999999,128.89258559262998,359.19297134546434,3.6933045356371488,3.8876889848812097,1009
Jul-18-2019 00:21:45,86.548,18.760000000000048,33.4893983,-117.76456999999999,128.59464753916197,356.8896810090385,4.198704103671707,4.393088552915767,1009
Jul-18-2019 00:22:00,86.148,18.720000000000027,33.4894183,-117.7645416,121.89677091408264,349.1891282424802,3.285097192224622,3.5961123110151187,1009
Jul-18-2019 00:22:15,86.148,18.720000000000027,33.48945,-117.7645,125.6954810958,357.78922474739386,4.295896328293737,4.490280777537797,1008
Jul-18-2019 00:22:30,85.908,18.680000000000007,33.489476599999996,-117.76447329999999,140.39757811885693,8.19902604832208,4.198704103671707,4.295896328293737,1009
Jul-18-2019 00:22:45,85.668,18.710000000000036,33.4895016,-117.7644583,143.59468261568693,4.795656745244991,2.9935205183585314,3.0907127429805614,1009
Jul-18-2019 00:23:00,85.584,18.77000000000004,33.4895233,-117.76444,143.0962093339231,6.394208993659988,2.896328293736501,2.9935205183585314,1009
Jul-18-2019 00:23:15,85.748,18.880000000000052,33.489545,-117.7644133,149.4961479055344,15.996981640052585,4.490280777537797,4.490280777537797,1009
Jul-18-2019 00:23:30,85.584,18.890000000000043,33.489565,-117.76437829999999,144.29369112574653,3.9992454100131463,3.5961123110151187,3.790496760259179,1009
Jul-18-2019 00:23:45,85.584,18.850000000000023,33.4895883,-117.7642283,150.195156415594,8.296428873494321,3.9848812095032398,5.695464362850972,1009
Jul-18-2019 00:24:00,85.104,18.82000000000005,33.48963,-117.76392829999999,160.4969375720462,18.999280486538098,5.092872570194384,7.289416846652268,1009
Jul-18-2019 00:24:15,85.184,18.850000000000023,33.489703299999995,-117.7635016,157.29410349726493,11.997736230039438,5.092872570194384,8.786177105831534,1009
Jul-18-2019 00:24:30,85.184,18.78000000000003,33.489805,-117.762975,157.49463872556072,14.896902673401405,6.784017278617711,10.185745140388768,1009
Jul-18-2019 00:24:45,85.584,18.860000000000014,33.4899716,-117.76241999999999,156.19402453061375,16.695990150112188,7.095032397408207,10.496760259179267,1009
Jul-18-2019 00:25:00,86.548,18.970000000000027,33.4901483,-117.7618416,159.7921994840353,17.394998660171794,7.794816414686824,11.196544276457884,1009
Jul-18-2019 00:25:15,86.792,18.960000000000036,33.4903283,-117.76124659999999,158.29677963874383,17.89920151988692,8.494600431965443,11.682505399568033,1009
Jul-18-2019 00:25:30,87.272,18.950000000000045,33.490565,-117.76065,153.69592854384334,22.797990668255455,10.282937365010799,12.98488120950324,1009
Jul-18-2019 00:25:45,87.272,18.890000000000043,33.4908633,-117.76007159999999,151.39263820741743,26.098227568209,10.885529157667388,12.693304535637148,1009
Jul-18-2019 00:26:00,87.432,18.900000000000034,33.491183299999996,-117.75955499999999,157.89570918215227,27.095174131736634,9.79697624190065,11.293736501079914,1009
Jul-18-2019 00:26:15,87.912,18.950000000000045,33.4914566,-117.75900159999999,155.99348930231793,22.797990668255455,9.194384449244062,11.682505399568033,1009
Jul-18-2019 00:26:30,87.992,18.890000000000043,33.4917166,-117.75842329999999,157.89570918215227,21.199438419840458,8.280777537796975,10.788336933045356,1009
Jul-18-2019 00:26:45,88.152,18.920000000000016,33.4919933,-117.7578466,156.7956302155011,19.497753768301912,7.989200863930886,10.496760259179267,1009
Jul-18-2019 00:27:00,88.792,19.010000000000048,33.4922283,-117.75729829999999,149.59355073070662,22.299517386491644,9.58315334773218,12.98488120950324,1009
Jul-18-2019 00:27:15,88.792,18.950000000000045,33.49236,-117.75685,155.6955512488499,23.898069634906637,8.397408207343414,10.982721382289418,1009
Jul-18-2019 00:27:30,88.712,18.960000000000036,33.4924166,-117.75650329999999,162.79449833052078,28.699455958102938,8.786177105831534,10.282937365010799,1009
Jul-18-2019 00:27:45,88.792,19.010000000000048,33.4924083,-117.75618829999999,157.29410349726493,20.99890319154467,8.183585313174946,9.58315334773218,1009
Jul-18-2019 00:28:00,89.352,19.010000000000048,33.49239,-117.75596159999999,141.89299796414838,6.0962709401919595,5.987041036717063,7.892008639308855,1009
Jul-18-2019 00:28:15,89.352,18.910000000000025,33.492361599999995,-117.755815,130.19319978757696,357.1933486404579,5.287257019438445,6.68682505399568,1009
Jul-18-2019 00:28:30,89.19200000000001,18.890000000000043,33.4923333,-117.7557566,127.09349811591922,352.5924975455573,4.995680345572354,5.889848812095033,1009
Jul-18-2019 00:28:45,88.952,18.880000000000052,33.492341599999996,-117.75574499999999,127.69510380080658,351.2918833506104,4.995680345572354,5.287257019438445,1009
Jul-18-2019 00:29:00,88.712,18.840000000000032,33.4923466,-117.75573329999999,127.7925066259788,350.4897424374272,4.684665226781857,4.781857451403887,1009
Jul-18-2019 00:29:15,88.312,18.79000000000002,33.492354999999996,-117.755725,133.8945071441221,352.68990037072956,5.190064794816414,5.384449244060475,1009
Jul-18-2019 00:29:30,87.912,18.79000000000002,33.49237,-117.7557033,142.69513887733152,354.8900583040319,4.393088552915767,4.684665226781857,1009
Jul-18-2019 00:29:45,87.83200000000001,18.930000000000007,33.492385,-117.75569829999999,125.6954810958,342.1933135639329,3.3822894168466524,3.6933045356371488,1009
Jul-18-2019 00:30:00,87.992,18.950000000000045,33.49239,-117.75568159999999,114.99262948275624,331.8915324074807,4.295896328293737,5.092872570194384,1009
Jul-18-2019 00:30:15,87.752,18.82000000000005,33.4924016,-117.75568159999999,106.09459492437455,328.09282222576326,4.995680345572354,5.987041036717063,1009
Jul-18-2019 00:30:30,87.19200000000001,18.77000000000004,33.4923966,-117.75565999999999,107.49261194449376,332.49313809236804,5.287257019438445,5.695464362850972,1009
Jul-18-2019 00:30:45,87.19200000000001,18.860000000000014,33.4924016,-117.7556666,103.39596370930835,329.78877729935056,6.49244060475162,6.881209503239741,1009
Jul-18-2019 00:31:00,86.792,18.77000000000004,33.492406599999995,-117.7556733,107.79627957591309,332.79107614583603,5.384449244060475,5.695464362850972,1009
Jul-18-2019 00:31:15,86.468,18.710000000000036,33.4924233,-117.75567,111.4975869324582,337.19139201244076,4.295896328293737,4.587473002159827,1009
Jul-18-2019 00:31:30,86.308,18.660000000000025,33.492445,-117.7556833,107.29780629414927,332.2926028640722,4.08207343412527,4.393088552915767,1009
Jul-18-2019 00:31:45,86.148,18.680000000000007,33.492445,-117.75569159999999,107.89368240108533,332.2926028640722,3.8876889848812097,4.198704103671707,1009
Jul-18-2019 00:32:00,86.148,18.80000000000001,33.49245,-117.75569829999999,94.79586720439471,318.9942524390858,4.490280777537797,4.684665226781857,1009
Jul-18-2019 00:32:15,86.148,18.840000000000032,33.4924683,-117.755715,105.49298923948719,329.2903040175868,5.287257019438445,5.481641468682505,1009
Jul-18-2019 00:32:30,86.388,18.890000000000043,33.4924783,-117.7557216,118.19546355753752,339.09361189227513,4.781857451403887,4.995680345572354,1009
Jul-18-2019 00:32:45,86.308,18.850000000000023,33.492476599999996,-117.7557183,118.99760447072069,338.29147097909197,4.781857451403887,4.684665226781857,1009
Jul-18-2019 00:33:00,86.068,18.80000000000001,33.4924683,-117.7557133,109.79590228091966,331.19252389742104,5.287257019438445,5.190064794816414,1009
Jul-18-2019 00:33:15,86.068,18.82000000000005,33.492484999999995,-117.7557483,114.59728860411596,334.9912340791384,6.084233261339092,5.987041036717063,1009
Jul-18-2019 00:33:30,85.584,18.79000000000002,33.4924933,-117.7557733,121.09463000089949,341.19063742245396,5.384449244060475,5.092872570194384,1009
Jul-18-2019 00:33:45,85.424,18.80000000000001,33.4925,-117.7558033,120.29248908771633,338.58940903256,5.092872570194384,4.781857451403887,1009
Jul-18-2019 00:34:00,85.508,18.840000000000032,33.4925083,-117.75583329999999,124.69280495432105,341.79224310734133,5.287257019438445,4.684665226781857,1009
Jul-18-2019 00:34:15,85.508,18.82000000000005,33.492509999999996,-117.7558466,135.69359462083287,351.49241857890615,5.987041036717063,5.384449244060475,1009
Jul-18-2019 00:34:30,85.508,18.810000000000002,33.49252,-117.75587159999999,131.79748161394326,346.4904970274141,5.092872570194384,4.393088552915767,1009
Jul-18-2019 00:34:45,85.424,18.840000000000032,33.4925333,-117.75590659999999,127.89563902910238,342.0901811608093,5.092872570194384,4.295896328293737,1009
Jul-18-2019 00:35:00,85.424,18.840000000000032,33.4925533,-117.7559333,118.99760447072069,331.988935232653,5.598272138228942,4.898488120950325,1009
Jul-18-2019 00:35:15,85.34400000000001,18.83000000000004,33.4925716,-117.7559533,96.79548990940127,302.69360316761396,4.684665226781857,3.8876889848812097,1009
Jul-18-2019 00:35:30,85.264,18.80000000000001,33.492593299999996,-117.755985,96.69808708422903,296.79213787776644,4.490280777537797,3.6933045356371488,1009
Jul-18-2019 00:35:45,85.34400000000001,18.860000000000014,33.4926266,-117.7560266,99.09305066787587,293.9903742595767,3.790496760259179,2.9935205183585314,1009
Jul-18-2019 00:36:00,85.424,19.02000000000004,33.4926816,-117.75607,95.99334899621813,295.6920589111152,5.092872570194384,4.684665226781857,1009
Jul-18-2019 00:36:15,85.424,19.000000000000057,33.49274,-117.7561216,100.89786772253798,297.3937435626538,5.695464362850972,5.190064794816414,1009
Jul-18-2019 00:36:30,85.264,18.940000000000055,33.49277,-117.7561466,105.19505118601916,301.79405942925854,4.490280777537797,4.198704103671707,1009
Jul-18-2019 00:36:45,85.424,19.010000000000048,33.4928133,-117.75618,96.5949546811055,295.9899969645833,4.684665226781857,4.587473002159827,1009
Jul-18-2019 00:37:00,85.424,18.940000000000055,33.492831599999995,-117.75618999999999,108.79322613944072,312.5943138674745,4.781857451403887,4.781857451403887,1009
Jul-18-2019 00:37:15,85.424,18.920000000000016,33.492824999999996,-117.7561633,130.19319978757696,340.29109368409854,4.684665226781857,5.092872570194384,1009
Jul-18-2019 00:37:30,85.34400000000001,18.840000000000032,33.4928166,-117.75612,125.09387541091264,349.1891282424802,4.587473002159827,5.190064794816414,1009
Jul-18-2019 00:37:45,85.104,18.78000000000003,33.4928033,-117.756075,121.39256805436752,353.29150605561694,4.995680345572354,5.598272138228942,1009
Jul-18-2019 00:38:00,85.024,18.930000000000007,33.49282,-117.75604159999999,129.2936560492216,3.5981749534215703,4.898488120950325,5.384449244060475,1009